Regional Weather Roundup
Issued by NWS

Home | Current Version | Previous Version | Graphics & Text | Print | Product List | Glossary On
Versions: 1 2 3 4 5 6 7 8 9 10 11 12 13 14 15 16 17 18 19 20 21 22 23 24 25 26 27 28 29 30 31 32 33 34 35 36 37 38 39 40 41 42 43 44 45 46 47 48 49 50
000
ASUS43 KIND 170209
RWRIN

WEATHER ROUNDUP FOR INDIANA
NATIONAL WEATHER SERVICE INDIANAPOLIS IN
900 PM EST FRI FEB 16 2018

NOTE: "FAIR" INDICATES FEW OR NO CLOUDS BELOW 12,000 FEET WITH NO
SIGNIFICANT WEATHER AND/OR OBSTRUCTIONS TO VISIBILITY.

* - STATION DOES NOT REPORT WEATHER SUCH AS PRECIPITATION OR FOG.

+ - STATION NOT QUALITY CONTROLLED BY THE NATIONAL WEATHER SERVICE.
    USE DATA WITH CAUTION...ESPECIALLY DEWPOINT AND RELATIVE
    HUMIDITY OBSERVATIONS.

INZ001>003-010>013-019-020-170300-
NORTHWEST INDIANA

CITY           SKY/WX    TMP DP  RH WIND       PRES   REMARKS
GARY /AIRPORT/ CLEAR     28  14  54 W10       30.31R WCI  19
KNOX *+        FAIR      28  23  80 W7        30.28S WCI  21
LA PORTE +     MOCLDY    21  17  84 CALM      30.29R
MICHIGAN CITY+ FAIR      21  19  93 CALM      30.30R
MONTICELLO +   FAIR      29  24  82 W7        30.29S WCI  22
RENSSELAER +   FAIR      28  21  74 W6        30.31R WCI  22
VALPARAISO     FAIR      26  20  77 W7        30.29R WCI  18

$$

LMZ046-743>745-170300-
SOUTHERN LAKE MICHIGAN

STATION/POSITION TIME  TEMP    WIND        PRES    WAVE
                       AIR SEA DIR/SP/G            HT
                 (UTC) (F)     (DEG/KT/KT) (MB)    (FT)
BURNS HARBOR     0140   28      CALM  /  2 1026.1S
MICHIGAN CITY    0140   28        CALM       N/A

$$

INZ004-005-014>016-021>024-170300-
NORTH CENTRAL INDIANA

CITY           SKY/WX    TMP DP  RH WIND       PRES   REMARKS
ELKHART        FAIR      23  18  80 CALM      30.28R
GOSHEN         FAIR      25  19  78 CALM      30.27R
LOGANSPORT +   CLOUDY    30  27  86 SW5       30.29F WCI  25
PERU/GRISSOM   MOCLDY    28  28  99 S5        30.27F WCI  23
ROCHESTER +    MOCLDY    32  25  74 CALM      30.28S
SOUTH BEND     FAIR      18  14  84 NW6       30.28S WCI  10
WARSAW +       CLOUDY    27  21  80 CALM      30.27S

$$

INZ006>009-017-018-025>027-170300-
NORTHEAST INDIANA

CITY           SKY/WX    TMP DP  RH WIND       PRES   REMARKS
AUBURN +       FAIR      28  21  74 CALM      30.27F
FORT WAYNE     FAIR      30  23  75 W3        30.28F
HUNTINGTON +   FAIR      26  21  80 CALM      30.28S
KENDALLVILLE + FAIR      26  21  81 CALM      30.26S

$$

INZ028-029-035-036-043>045-051>053-170300-
WEST CENTRAL INDIANA

CITY           SKY/WX    TMP DP  RH WIND       PRES   REMARKS
CRAWFORDSVL +  CLOUDY    30  24  77 CALM      30.30S
GREENCASTLE +  CLOUDY    32  23  69 CALM      30.31S
LAFAYETTE      FAIR      27  23  85 W5        30.30S WCI  22
TERRE HAUTE    FAIR      32  26  78 CALM      30.31F

$$

INZ030>032-037>040-046>048-054>057-064-065-170300-
CENTRAL INDIANA

CITY           SKY/WX    TMP DP  RH WIND       PRES   REMARKS
COLUMBUS       CLOUDY    32  25  74 NE6       30.32R WCI  26
FISHERS *+     CLOUDY    28  27  93 CALM      30.30S
FRANKFORT +    MOCLDY    33  26  73 SW3       30.30F
GREENWOOD *+   CLOUDY   N/A N/A N/A NE3       30.31R
INDIANAPOLIS   CLOUDY    34  21  59 VRB3      30.30R
-EAGLE CREEK   CLOUDY    34  22  61 CALM      30.29S
KOKOMO +       FAIR      29  25  85 S6        30.29F WCI  23
MARION +       FAIR      28  24  84 CALM      30.30S
MT COMFORT *+  CLOUDY    30  27  86 N3        30.30S
SHELBYVILLE    CLOUDY    34  23  64 CALM      30.30R
ZIONSVILLE +   CLOUDY    30  25  79 CALM      30.29S

$$

INZ033-034-041-042-049-050-058-059-170300-
EAST CENTRAL INDIANA

CITY           SKY/WX    TMP DP  RH WIND       PRES   REMARKS
MUNCIE         CLOUDY    33  24  69 W7        30.29R WCI  27
RICHMOND +     CLOUDY    32  23  69 NW3       30.29R

$$

INZ060-061-067>069-081>083-085>088-170300-
SOUTHWEST INDIANA

CITY           SKY/WX    TMP DP  RH WIND       PRES   REMARKS
EVANSVILLE     CLOUDY    37  32  82 NW3       30.33R
HUNTINGBURG +  CLOUDY    37  30  75 N7        30.32R WCI  32
WASHINGTON +   CLOUDY    36  26  68 N3        30.33R

$$

INZ062-063-066-070>080-084-089>092-170300-
SOUTH CENTRAL AND SOUTHEAST INDIANA

CITY           SKY/WX    TMP DP  RH WIND       PRES   REMARKS
BATESVILLE +   CLOUDY    34  27  75 MISG      30.29S
BEDFORD +      CLOUDY    36  27  69 CALM      30.30R
BLOOMINGTON    CLOUDY    36  27  69 N5        30.30R WCI  32
FRENCH LICK *+ CLOUDY    36  25  64 CALM      30.31S
MADISON *+     CLOUDY    36  27  69 N3        30.32R
NORTH VERNON + CLOUDY    32  25  74 NE5       30.31R WCI  27
SEYMOUR +      CLOUDY    37  25  60 N7        30.32R WCI  32

$$





USA.gov is the U.S. government's official web portal to all federal, state and local government web resources and services.